Weather History for Benton Harbor, MI

Change the Weather History Date:

Saturday, June 7, 2014

  Actual Average Record
Temperature  
Mean Temperature 63 °F -  
Max Temperature 81 °F 76 °F 93 °F (2011)
Min Temperature 46 °F 56 °F 35 °F (1958)
Degree Days  
Heating Degree Days 2    
Growing Degree Days 13 (Base 50)    
Moisture  
Dew Point 52 °F    
Average Humidity 63    
Maximum Humidity 100    
Minimum Humidity 38    
Precipitation  
Precipitation 0.00 in - - ()
Sea Level Pressure  
Sea Level Pressure 29.94 in    
Wind  
Wind Speed 3 mph (ENE)    
Max Wind Speed 10 mph    
Max Gust Speed -    
Visibility 10 miles    
Events      
Averages and records for this station are not official NWS values.
T = Trace of Precipitation, MM = Missing Value Source: NWS Daily Summary

Daily Weather History Graph

Daily Weather History Graph

Search for Another Location

Airport:

Trip Planner

Search our weather history database for the weather conditions in past years. The results will help you decide how hot, cold, wet, or windy it might be!

Date:

Astronomy

Jun. 07, 2014 Rise Set
Actual Time 6:10 AM EDT 9:19 PM EDT
Civil Twilight 5:35 AM EDT 9:53 PM EDT
Nautical Twilight 4:52 AM EDT 10:37 PM EDT
Astronomical Twilight 3:59 AM EDT 11:30 PM EDT
Moon 3:31 PM EDT (6/7) 2:37 AM EDT (6/7)
Length of Visible Light 16h 17m
Length of Day
15h 09m
Waxing Gibbous, 67% of the Moon is Illuminated
Jun 7
Waxing Gibbous
Jun 13
Full
Jun 19
Last Quarter
Jun 27
New
Jul 5
First Quarter

Hourly Weather History & Observations

Time (EDT) Temp. Heat Index Dew Point Humidity Pressure Visibility Wind Dir Wind Speed Gust Speed Precip Events Conditions
12:53 AM 50.0 °F - 46.9 °F 89% 30.02 in 10.0 mi Calm Calm - N/A   Clear
1:53 AM 48.9 °F - 48.0 °F 97% 30.01 in 10.0 mi East 3.5 mph - N/A   Clear
2:53 AM 48.0 °F - 46.9 °F 96% 30.00 in 10.0 mi Calm Calm - N/A   Clear
3:53 AM 46.9 °F - 46.9 °F 100% 30.00 in 10.0 mi Calm Calm - N/A   Clear
5:53 AM 46.9 °F - 46.0 °F 97% 30.03 in 10.0 mi Calm Calm - N/A   Clear
6:53 AM 48.0 °F - 48.0 °F 100% 30.03 in 10.0 mi Calm Calm - N/A   Clear
7:53 AM 55.9 °F - 52.0 °F 87% 30.03 in 10.0 mi Calm Calm - N/A   Clear
9:53 AM 73.9 °F - 52.0 °F 46% 30.00 in 10.0 mi SE 8.1 mph - N/A   Clear
10:53 AM 77.0 °F - 53.1 °F 43% 29.99 in 10.0 mi South 8.1 mph - N/A   Clear
11:53 AM 80.1 °F - 52.0 °F 38% 29.99 in 10.0 mi SSE 9.2 mph - N/A   Clear
12:53 PM 79.0 °F - 53.1 °F 40% 29.98 in 10.0 mi West 10.4 mph - N/A   Clear
1:53 PM 78.1 °F - 54.0 °F 43% 29.96 in 10.0 mi Variable 4.6 mph - N/A   Clear
2:53 PM 80.1 °F 80.0 °F 54.0 °F 40% 29.93 in 10.0 mi Variable 5.8 mph - N/A   Clear
3:53 PM 78.1 °F - 53.1 °F 42% 29.91 in 10.0 mi WNW 5.8 mph - N/A   Clear
4:53 PM 78.1 °F - 53.1 °F 42% 29.90 in 10.0 mi Variable 4.6 mph - N/A   Scattered Clouds
5:53 PM 75.0 °F - 53.1 °F 46% 29.90 in 10.0 mi North 3.5 mph - N/A   Partly Cloudy
6:53 PM 73.0 °F - 53.1 °F 49% 29.88 in 10.0 mi Calm Calm - N/A   Clear
7:53 PM 73.0 °F - 54.0 °F 51% 29.86 in 10.0 mi Calm Calm - N/A   Partly Cloudy
8:53 PM 71.1 °F - 54.0 °F 55% 29.85 in 10.0 mi NE 3.5 mph - N/A   Partly Cloudy
9:53 PM 70.0 °F - 54.0 °F 57% 29.83 in 10.0 mi NE 5.8 mph - N/A   Clear
10:53 PM 68.0 °F - 53.1 °F 59% 29.84 in 10.0 mi ENE 3.5 mph - N/A   Clear
11:53 PM 66.9 °F - 54.0 °F 63% 29.84 in 10.0 mi ENE 4.6 mph - N/A   Scattered Clouds